When you browse on this site, cookies collect data to enhance your experience and personalize the content and advertising you see.
Visit our Privacy Policy to learn more. By continuing to use the site, you agree to this use of cookies and data.
  • In Latvia
  • List of Countries
  • For 7 days
  • Water Temperature
  • Weather Map
  • Weather Widgets
  • user-avatar
    Login

    Hourly Weather Klagenfurt

    Today, 9 December, Monday

    Time Temperature Precipitation Wind Pressure Humidity
    00:00 +2°C° 0 mm 1 mps 685 mmHg 92%
    01:00 +2°C° 0 mm 1 mps 685 mmHg 92%
    02:00 +2°C° 0 mm 1 mps 684 mmHg 93%
    03:00 +2°C° 0 mm 1 mps 684 mmHg 93%
    04:00 +2°C° 0 mm 0 mps 683 mmHg 93%
    05:00 +2°C° 0.1 mm 0 mps 683 mmHg 94%
    06:00 +2°C° 0.1 mm 0 mps 683 mmHg 94%
    07:00 +2°C° 0.1 mm 0 mps 683 mmHg 95%
    08:00 +2°C° 0.4 mm 0 mps 683 mmHg 95%
    09:00 +2°C° 0.4 mm 0 mps 683 mmHg 96%
    10:00 +2°C° 0.4 mm 0 mps 683 mmHg 96%
    11:00 +2°C° 1 mm 0 mps 682 mmHg 96%
    12:00 +2°C° 1 mm 0 mps 682 mmHg 97%
    13:00 +3°C° 1 mm 0 mps 681 mmHg 97%
    14:00 +3°C° 3.2 mm 1 mps 681 mmHg 98%
    15:00 +3°C° 3.2 mm 1 mps 680 mmHg 98%
    16:00 +2°C° 3.2 mm 1 mps 680 mmHg 98%
    17:00 +2°C° 1.1 mm 1 mps 681 mmHg 98%
    18:00 +2°C° 1.1 mm 1 mps 681 mmHg 97%
    19:00 +2°C° 1.1 mm 1 mps 681 mmHg 97%
    20:00 +2°C° 0.4 mm 1 mps 682 mmHg 97%
    21:00 +2°C° 0.4 mm 1 mps 682 mmHg 97%
    22:00 +1°C° 0.4 mm 0 mps 682 mmHg 97%
    23:00 +1°C° 0 mm 0 mps 683 mmHg 96%

    Tomorrow, 10 December, Tuesday

    Time Temperature Precipitation Wind Pressure Humidity
    00:00 +2°C° 0 mm 1 mps 683 mmHg 96%
    01:00 +2°C° 0 mm 1 mps 684 mmHg 95%
    02:00 +1°C° 0 mm 1 mps 684 mmHg 95%
    03:00 +1°C° 0 mm 1 mps 684 mmHg 94%
    04:00 +1°C° 0 mm 1 mps 685 mmHg 94%
    05:00 +1°C° 0 mm 1 mps 685 mmHg 92%
    06:00 0°C° 0 mm 1 mps 686 mmHg 91%
    07:00 0°C° 0 mm 1 mps 687 mmHg 89%
    08:00 +1°C° 0 mm 1 mps 688 mmHg 85%
    09:00 +1°C° 0 mm 2 mps 689 mmHg 80%
    10:00 +2°C° 0 mm 2 mps 690 mmHg 75%
    11:00 +2°C° 0 mm 2 mps 690 mmHg 70%
    12:00 +2°C° 0 mm 2 mps 690 mmHg 65%
    13:00 +2°C° 0 mm 3 mps 691 mmHg 60%
    14:00 +1°C° 0 mm 2 mps 691 mmHg 64%
    15:00 -1°C° 0 mm 2 mps 691 mmHg 67%
    16:00 -2°C° 0 mm 2 mps 691 mmHg 71%
    17:00 -3°C° 0 mm 2 mps 691 mmHg 72%
    18:00 -4°C° 0 mm 2 mps 691 mmHg 73%
    19:00 -5°C° 0 mm 2 mps 691 mmHg 74%
    20:00 -3°C° 0 mm 1 mps 691 mmHg 75%
    21:00 -3°C° 0 mm 1 mps 691 mmHg 76%
    22:00 -3°C° 0 mm 1 mps 691 mmHg 77%
    23:00 -4°C° 0 mm 1 mps 691 mmHg 77%

    Day after tomorrow, 11 December, Wednesday

    Time Temperature Precipitation Wind Pressure Humidity
    00:00 -4°C° 0 mm 1 mps 691 mmHg 76%
    01:00 -4°C° 0 mm 1 mps 691 mmHg 76%
    02:00 -4°C° 0 mm 1 mps 690 mmHg 76%
    03:00 -4°C° 0 mm 1 mps 690 mmHg 75%
    04:00 -6°C° 0 mm 0 mps 689 mmHg 74%
    05:00 -6°C° 0 mm 0 mps 689 mmHg 74%
    06:00 -6°C° 0 mm 0 mps 688 mmHg 73%
    07:00 -6°C° 0 mm 0 mps 688 mmHg 72%
    08:00 -5°C° 0 mm 0 mps 688 mmHg 69%
    09:00 -3°C° 0 mm 0 mps 688 mmHg 67%
    10:00 -2°C° 0 mm 0 mps 688 mmHg 64%
    11:00 -2°C° 0 mm 0 mps 687 mmHg 61%
    12:00 -1°C° 0 mm 0 mps 686 mmHg 59%
    13:00 0°C° 0 mm 0 mps 686 mmHg 56%
    14:00 -1°C° 0 mm 0 mps 685 mmHg 61%
    15:00 -2°C° 0 mm 0 mps 684 mmHg 65%
    16:00 -3°C° 0 mm 0 mps 683 mmHg 70%
    17:00 -4°C° 0 mm 0 mps 683 mmHg 68%
    18:00 -4°C° 0 mm 0 mps 683 mmHg 66%
    19:00 -4°C° 0 mm 0 mps 683 mmHg 64%
    20:00 -4°C° 0 mm 0 mps 683 mmHg 65%
    21:00 -4°C° 0 mm 0 mps 683 mmHg 66%
    22:00 -4°C° 0 mm 0 mps 683 mmHg 67%
    23:00 -4°C° 0 mm 0 mps 683 mmHg 68%

    12 December, Thursday

    Time Temperature Precipitation Wind Pressure Humidity
    00:00 -4°C° 0 mm 0 mps 682 mmHg 68%
    01:00 -4°C° 0 mm 0 mps 682 mmHg 69%
    02:00 -4°C° 0 mm 0 mps 682 mmHg 70%
    03:00 -4°C° 0 mm 0 mps 682 mmHg 72%
    04:00 -4°C° 0 mm 0 mps 682 mmHg 73%
    05:00 -4°C° 0.1 mm 0 mps 682 mmHg 75%
    06:00 -4°C° 0.1 mm 0 mps 682 mmHg 78%
    07:00 -4°C° 0.1 mm 0 mps 682 mmHg 80%
    08:00 -3°C° 0 mm 0 mps 682 mmHg 75%
    09:00 -2°C° 0 mm 0 mps 683 mmHg 70%
    10:00 -1°C° 0 mm 0 mps 683 mmHg 65%
    11:00 -1°C° 0.3 mm 0 mps 683 mmHg 69%
    12:00 -1°C° 0.3 mm 0 mps 683 mmHg 72%
    13:00 -1°C° 0.3 mm 0 mps 683 mmHg 76%
    14:00 -1°C° 0.2 mm 0 mps 683 mmHg 82%
    15:00 -2°C° 0.2 mm 0 mps 683 mmHg 87%
    16:00 -2°C° 0.2 mm 0 mps 683 mmHg 93%
    17:00 -2°C° 0 mm 0 mps 683 mmHg 92%
    18:00 -2°C° 0 mm 0 mps 683 mmHg 92%
    19:00 -3°C° 0 mm 0 mps 683 mmHg 92%
    20:00 -3°C° 0 mm 0 mps 683 mmHg 92%
    21:00 -2°C° 0 mm 1 mps 683 mmHg 92%
    22:00 -3°C° 0 mm 1 mps 682 mmHg 93%
    23:00 -3°C° 0 mm 1 mps 681 mmHg 93%

    13 December, Friday

    Time Temperature Precipitation Wind Pressure Humidity
    00:00 -3°C° 0 mm 1 mps 681 mmHg 93%
    01:00 -3°C° 0 mm 1 mps 680 mmHg 93%
    02:00 -3°C° 0 mm 1 mps 679 mmHg 92%
    03:00 -3°C° 0 mm 1 mps 678 mmHg 92%
    04:00 -5°C° 0 mm 2 mps 677 mmHg 92%
    05:00 -5°C° 0 mm 2 mps 676 mmHg 91%
    06:00 -5°C° 0 mm 2 mps 675 mmHg 91%
    07:00 -4°C° 0 mm 2 mps 674 mmHg 91%
    08:00 -4°C° 0 mm 2 mps 674 mmHg 88%
    09:00 -1°C° 0 mm 1 mps 673 mmHg 86%
    10:00 0°C° 0 mm 1 mps 672 mmHg 84%
    11:00 0°C° 2.1 mm 1 mps 672 mmHg 88%
    12:00 0°C° 2.1 mm 1 mps 671 mmHg 92%
    13:00 0°C° 2.1 mm 1 mps 670 mmHg 96%
    14:00 0°C° 1.1 mm 1 mps 670 mmHg 95%
    15:00 -1°C° 1.1 mm 1 mps 670 mmHg 95%
    16:00 -1°C° 1.1 mm 1 mps 670 mmHg 94%
    17:00 -1°C° 0 mm 1 mps 671 mmHg 93%
    18:00 -2°C° 0 mm 1 mps 672 mmHg 92%
    19:00 -2°C° 0 mm 1 mps 673 mmHg 91%
    20:00 -2°C° 0 mm 1 mps 673 mmHg 90%
    21:00 -3°C° 0 mm 1 mps 674 mmHg 88%
    22:00 -3°C° 0 mm 1 mps 675 mmHg 87%
    23:00 -3°C° 0 mm 1 mps 675 mmHg 85%

    14 December, Saturday

    Time Temperature Precipitation Wind Pressure Humidity
    00:00 -3°C° 0 mm 1 mps 675 mmHg 84%
    01:00 -3°C° 0 mm 1 mps 676 mmHg 82%
    02:00 -3°C° 0 mm 1 mps 676 mmHg 82%
    03:00 -4°C° 0 mm 0 mps 676 mmHg 82%
    04:00 -4°C° 0 mm 0 mps 676 mmHg 82%
    05:00 -4°C° 0 mm 0 mps 676 mmHg 82%
    06:00 -4°C° 0 mm 0 mps 676 mmHg 83%
    07:00 -3°C° 0 mm 1 mps 677 mmHg 83%
    08:00 -2°C° 0 mm 1 mps 677 mmHg 83%
    09:00 -1°C° 0 mm 1 mps 677 mmHg 83%
    10:00 +1°C° 0 mm 1 mps 678 mmHg 83%
    11:00 +1°C° 0 mm 1 mps 678 mmHg 84%
    12:00 +2°C° 0 mm 1 mps 679 mmHg 85%
    13:00 +3°C° 0 mm 1 mps 679 mmHg 85%
    14:00 +2°C° 0 mm 1 mps 679 mmHg 87%
    15:00 +1°C° 0 mm 1 mps 680 mmHg 90%
    16:00 -1°C° 0 mm 0 mps 681 mmHg 92%
    17:00 -1°C° 0 mm 0 mps 681 mmHg 90%
    18:00 -2°C° 0 mm 0 mps 682 mmHg 89%
    19:00 -2°C° 0 mm 0 mps 683 mmHg 87%
    20:00 -2°C° 0 mm 0 mps 684 mmHg 86%
    21:00 -2°C° 0 mm 0 mps 684 mmHg 86%
    22:00 -2°C° 0 mm 0 mps 685 mmHg 85%
    23:00 -2°C° 0 mm 0 mps 685 mmHg 85%
    Show more